Weather History for KSTJ - July, 2012

Change the Weather History Date:

Saturday, July 21, 2012

  Actual Average Record
Temperature  
Mean Temperature 80 °F 77 °F  
Max Temperature 96 °F 87 °F 106 °F (1934)
Min Temperature 63 °F 67 °F 50 °F (1970)
Degree Days  
Heating Degree Days 0 0  
Month to date heating degree days 0 0  
Since 1 June heating degree days 8 8  
Since 1 July heating degree days 0 0  
Cooling Degree Days 15 12  
Month to date cooling degree days 371 250  
Year to date cooling degree days 989 630  
Since 1 June cooling degree days 722 517  
Growing Degree Days 29 (Base 50)    
Moisture  
Dew Point 64 °F    
Average Humidity 64    
Maximum Humidity 93    
Minimum Humidity 34    
Precipitation  
Precipitation 0.00 in 0.17 in 3.50 in (1990)
Month to date precipitation 0.02 3.40  
Year to date precipitation 14.87 20.53  
Sea Level Pressure  
Sea Level Pressure 30.03 in    
Wind  
Wind Speed 4 mph (SSE)    
Max Wind Speed 12 mph    
Max Gust Speed 15 mph    
Visibility 10 miles    
Events      
T = Trace of Precipitation, MM = Missing Value Source: NWS Daily Summary

Daily Weather History Graph

Daily Weather History Graph

Search for Another Location

Airport or City:

Trip Planner

Search our weather history database for the weather conditions in past years. The results will help you decide how hot, cold, wet, or windy it might be!

Date:

Astronomy

Jul. 21, 2012 Rise Set
Actual Time 6:09 AM CDT 8:42 PM CDT
Civil Twilight 5:38 AM CDT 9:13 PM CDT
Nautical Twilight 4:59 AM CDT 9:52 PM CDT
Astronomical Twilight 4:15 AM CDT 10:35 PM CDT
Moon 8:50 AM CDT (7/21) 9:55 PM CDT (7/21)
Length of Visible Light 15h 35m
Length of Day
14h 33m
Waxing Crescent, 7% of the Moon is Illuminated
Jul 21
Waxing Crescent
Jul 26
First Quarter
Aug 1
Full
Aug 9
Last Quarter
Aug 17
New

Hourly Weather History & Observations

Time (CDT) Temp. Heat Index Dew Point Humidity Pressure Visibility Wind Dir Wind Speed Gust Speed Precip Events Conditions
12:53 AM 73.0 °F - 60.1 °F 64% 30.04 in 10.0 mi SE 4.6 mph - N/A   Clear
1:53 AM 73.9 °F - 61.0 °F 64% 30.05 in 10.0 mi SE 5.8 mph - N/A   Clear
2:53 AM 70.0 °F - 61.0 °F 73% 30.03 in 10.0 mi SSE 3.5 mph - N/A   Clear
3:53 AM 64.9 °F - 60.1 °F 84% 30.04 in 10.0 mi Calm Calm - N/A   Clear
4:53 AM 64.0 °F - 60.1 °F 87% 30.06 in 10.0 mi Calm Calm - N/A   Clear
5:53 AM 63.0 °F - 60.1 °F 90% 30.08 in 10.0 mi Calm Calm - N/A   Clear
6:53 AM 68.0 °F - 63.0 °F 84% 30.06 in 10.0 mi SSE 3.5 mph - N/A   Clear
7:53 AM 73.0 °F - 64.9 °F 76% 30.07 in 10.0 mi South 5.8 mph - N/A   Clear
8:53 AM 77.0 °F - 66.0 °F 69% 30.07 in 10.0 mi SSE 8.1 mph - N/A   Clear
9:53 AM 81.0 °F 83.3 °F 66.9 °F 62% 30.07 in 10.0 mi South 6.9 mph - N/A   Clear
10:53 AM 82.0 °F 84.9 °F 68.0 °F 62% 30.06 in 10.0 mi South 9.2 mph - N/A   Clear
11:53 AM 82.9 °F 85.8 °F 68.0 °F 60% 30.08 in 10.0 mi Calm Calm - N/A   Clear
12:53 PM 88.0 °F 90.3 °F 66.0 °F 48% 30.07 in 10.0 mi Calm Calm - N/A   Clear
1:53 PM 89.1 °F 91.0 °F 64.9 °F 45% 30.05 in 10.0 mi Calm Calm - N/A   Clear
2:53 PM 93.0 °F 95.0 °F 64.9 °F 39% 30.03 in 10.0 mi SSE 8.1 mph - N/A   Clear
3:53 PM 95.0 °F 96.0 °F 63.0 °F 34% 30.00 in 10.0 mi SE 8.1 mph - N/A   Clear
4:53 PM 93.9 °F 95.2 °F 63.0 °F 36% 29.99 in 10.0 mi South 4.6 mph - N/A   Clear
5:53 PM 93.9 °F 95.2 °F 63.0 °F 36% 29.98 in 10.0 mi South 5.8 mph - N/A   Clear
6:53 PM 93.0 °F 95.0 °F 64.9 °F 39% 29.96 in 10.0 mi South 5.8 mph - N/A   Clear
7:53 PM 89.1 °F 91.3 °F 66.0 °F 46% 29.96 in 10.0 mi SSE 5.8 mph - N/A   Clear
8:53 PM 84.9 °F 85.9 °F 63.0 °F 48% 29.96 in 10.0 mi SSE 8.1 mph - N/A   Clear
9:53 PM 84.0 °F 84.9 °F 63.0 °F 49% 29.96 in 10.0 mi SE 6.9 mph - N/A   Clear
10:53 PM 80.1 °F 81.5 °F 63.0 °F 56% 29.97 in 10.0 mi SE 4.6 mph - N/A   Clear
11:53 PM 79.0 °F - 63.0 °F 58% 29.98 in 10.0 mi SSE 3.5 mph - N/A   Clear